QPF
0.12 0.15 0.14 0.13 0.13 0.13 0.14 0.14 0.13 0.14 0.14 0.13 0.12 0.11 0.11 0.11 0.09 0.07 0.05 0.04 0.10 0.14 0.17 0.19 0.18 0.18 0.18 0.15 0.14 0.13 0.12 0.10 0.09 0.07 0.05 0.04 0.05 0.04 0.03 0.02 0.01 0.01 0.01
0.20 0.21 0.19 0.16 0.14 0.12 0.10 0.09 0.09 0.11 0.12 0.12 0.09 0.10 0.11 0.07 0.05 0.04 0.03 0.02 0.04 0.08 0.11 0.15 0.18 0.19 0.20 0.18 0.19 0.19 0.16 0.13 0.11 0.08 0.07 0.06 0.06 0.06 0.07 0.06 0.04 0.03 0.02
0.28 0.27 0.24 0.18 0.12 0.10 0.10 0.09 0.09 0.09 0.08 0.08 0.08 0.09 0.08 0.06 0.05 0.04 0.03 0.02 0.02 0.04 0.06 0.08 0.13 0.17 0.19 0.23 0.25 0.22 0.18 0.14 0.13 0.11 0.09 0.08 0.06 0.06 0.07 0.08 0.08 0.06 0.05
0.35 0.28 0.18 0.13 0.11 0.08 0.07 0.07 0.05 0.04 0.04 0.04 0.05 0.06 0.04 0.05 0.03 0.02 0.02 0.02 0.02 0.02 0.03 0.07 0.10 0.14 0.19 0.23 0.26 0.26 0.23 0.17 0.14 0.13 0.12 0.10 0.08 0.07 0.06 0.07 0.09 0.09 0.07
0.25 0.22 0.16 0.11 0.08 0.06 0.04 0.04 0.03 0.03 0.02 0.02 0.02 0.02 0.02 0.04 0.03 0.01 0.01 0.01 0.01 0.02 0.03 0.04 0.06 0.08 0.14 0.18 0.20 0.22 0.24 0.23 0.20 0.18 0.17 0.15 0.13 0.10 0.07 0.08 0.08 0.09 0.08
0.18 0.16 0.15 0.11 0.07 0.04 0.03 0.02 0.01 0.01 0.01 0.01 0.01 0.00 0.01 0.02 0.02 0.01 0.01 0.01 0.01 0.01 0.02 0.02 0.03 0.04 0.07 0.10 0.12 0.17 0.21 0.21 0.21 0.20 0.19 0.17 0.15 0.12 0.08 0.07 0.07 0.07 0.07
0.21 0.15 0.11 0.07 0.05 0.04 0.03 0.02 0.01 0.01 0.01 0.01 0.00 0.00 0.00 0.00 0.00 0.00 0.00 0.00 0.00 0.01 0.02 0.02 0.02 0.02 0.02 0.04 0.05 0.08 0.14 0.18 0.18 0.15 0.15 0.15 0.14 0.11 0.09 0.08 0.07 0.06 0.06
0.16 0.12 0.10 0.06 0.03 0.03 0.02 0.02 0.01 0.01 0.01 0.01 0.00 0.00 0.00 0.00 0.00 0.00 0.00 0.00 0.00 0.01 0.01 0.01 0.02 0.01 0.01 0.01 0.01 0.03 0.09 0.13 0.15 0.16 0.14 0.13 0.11 0.09 0.08 0.08 0.07 0.05 0.06
0.12 0.08 0.06 0.05 0.04 0.03 0.02 0.01 0.01 0.01 0.01 0.01 0.00 0.00 0.00 0.00 0.00 0.00 0.00 0.00 0.00 0.00 0.01 0.01 0.01 0.01 0.00 0.00 0.00 0.01 0.03 0.06 0.10 0.12 0.12 0.09 0.08 0.07 0.07 0.07 0.07 0.05 0.05
0.12 0.09 0.06 0.04 0.03 0.03 0.02 0.02 0.01 0.01 0.01 0.00 0.00 0.00 0.00 0.00 0.00 0.00 0.00 0.00 0.00 0.00 0.00 0.00 0.00 0.00 0.00 0.00 0.01 0.01 0.02 0.03 0.04 0.07 0.08 0.09 0.09 0.07 0.06 0.07 0.09 0.08 0.05
0.14 0.12 0.10 0.08 0.06 0.06 0.05 0.04 0.03 0.01 0.01 0.00 0.00 0.00 0.00 0.00 0.00 0.00 0.00 0.00 0.00 0.00 0.00 0.00 0.00 0.00 0.00 0.00 0.01 0.01 0.02 0.02 0.03 0.04 0.06 0.08 0.08 0.07 0.07 0.08 0.10 0.11 0.10
0.13 0.11 0.11 0.10 0.10 0.10 0.08 0.06 0.04 0.02 0.01 0.01 0.00 0.00 0.00 0.00 0.00 0.00 0.00 0.00 0.00 0.00 0.00 0.00 0.00 0.00 0.00 0.01 0.01 0.01 0.01 0.02 0.03 0.04 0.06 0.07 0.08 0.08 0.08 0.08 0.09 0.11 0.12
0.08 0.08 0.08 0.08 0.08 0.08 0.08 0.07 0.04 0.02 0.02 0.02 0.01 0.00 0.00 0.00 0.00 0.00 0.00 0.00 0.00 0.00 0.00 0.00 0.00 0.00 0.00 0.00 0.01 0.01 0.01 0.02 0.03 0.03 0.04 0.04 0.05 0.06 0.07 0.07 0.08 0.10 0.12
0.03 0.04 0.05 0.05 0.06 0.07 0.08 0.07 0.06 0.04 0.03 0.02 0.02 0.01 0.00 0.00 0.00 0.00 0.00 0.00 0.00 0.00 0.00 0.00 0.00 0.00 0.00 0.00 0.01 0.01 0.01 0.02 0.02 0.02 0.02 0.02 0.02 0.03 0.04 0.06 0.07 0.07 0.08
0.01 0.02 0.02 0.03 0.04 0.04 0.05 0.05 0.06 0.06 0.05 0.04 0.03 0.02 0.01 0.01 0.01 0.00 0.00 0.01 0.01 0.01 0.00 0.00 0.00 0.00 0.01 0.01 0.01 0.01 0.01 0.01 0.01 0.01 0.01 0.02 0.01 0.02 0.03 0.04 0.07 0.07 0.06
0.00 0.01 0.01 0.02 0.02 0.03 0.04 0.04 0.04 0.04 0.04 0.04 0.04 0.03 0.02 0.02 0.02 0.01 0.01 0.00 0.01 0.01 0.01 0.00 0.00 0.00 0.01 0.01 0.02 0.01 0.01 0.01 0.01 0.01 0.01 0.01 0.02 0.02 0.02 0.04 0.06 0.07 0.08
0.00 0.00 0.01 0.01 0.01 0.01 0.02 0.02 0.03 0.03 0.03 0.03 0.03 0.03 0.03 0.03 0.03 0.02 0.01 0.01 0.01 0.01 0.01 0.00 0.00 0.00 0.01 0.01 0.02 0.01 0.01 0.00 0.01 0.02 0.02 0.01 0.01 0.02 0.02 0.03 0.04 0.04 0.06
0.00 0.00 0.00 0.01 0.01 0.01 0.01 0.01 0.01 0.02 0.03 0.03 0.03 0.03 0.03 0.02 0.02 0.02 0.02 0.01 0.01 0.01 0.01 0.01 0.00 0.01 0.01 0.01 0.01 0.01 0.01 0.01 0.01 0.02 0.02 0.01 0.01 0.02 0.02 0.02 0.02 0.02 0.03
0.00 0.00 0.00 0.00 0.00 0.01 0.02 0.02 0.02 0.02 0.02 0.02 0.03 0.03 0.03 0.02 0.02 0.01 0.01 0.01 0.01 0.01 0.01 0.01 0.01 0.01 0.02 0.02 0.02 0.02 0.01 0.01 0.01 0.01 0.01 0.01 0.01 0.01 0.02 0.02 0.02 0.01 0.01
0.00 0.00 0.00 0.00 0.00 0.00 0.00 0.01 0.03 0.03 0.03 0.02 0.01 0.02 0.02 0.02 0.02 0.01 0.01 0.01 0.01 0.01 0.01 0.01 0.01 0.02 0.03 0.03 0.03 0.02 0.02 0.02 0.01 0.01 0.01 0.01 0.01 0.01 0.01 0.02 0.02 0.01 0.01
0.00 0.00 0.00 0.00 0.00 0.00 0.00 0.00 0.01 0.02 0.04 0.05 0.03 0.02 0.01 0.02 0.02 0.02 0.01 0.00 0.01 0.01 0.01 0.02 0.02 0.02 0.03 0.04 0.04 0.03 0.02 0.02 0.02 0.01 0.01 0.01 0.00 0.00 0.00 0.01 0.01 0.01 0.01
0.00 0.00 0.00 0.00 0.00 0.00 0.00 0.00 0.00 0.00 0.02 0.03 0.05 0.05 0.03 0.02 0.02 0.02 0.01 0.01 0.01 0.01 0.01 0.02 0.02 0.02 0.02 0.02 0.02 0.02 0.02 0.02 0.03 0.02 0.01 0.01 0.00 0.00 0.00 0.00 0.01 0.01 0.01
0.00 0.00 0.00 0.00 0.00 0.00 0.00 0.00 0.00 0.00 0.00 0.01 0.02 0.04 0.04 0.03 0.02 0.02 0.02 0.01 0.01 0.01 0.01 0.01 0.02 0.01 0.01 0.02 0.02 0.03 0.03 0.03 0.02 0.01 0.01 0.01 0.01 0.01 0.01 0.01 0.01 0.01 0.02
0.00 0.00 0.00 0.00 0.00 0.00 0.00 0.00 0.00 0.00 0.00 0.00 0.01 0.02 0.04 0.04 0.03 0.02 0.02 0.01 0.01 0.01 0.01 0.01 0.01 0.02 0.03 0.03 0.04 0.04 0.05 0.04 0.03 0.02 0.01 0.01 0.01 0.01 0.01 0.01 0.01 0.01 0.01
0.01 0.00 0.00 0.00 0.00 0.00 0.00 0.00 0.00 0.00 0.00 0.00 0.01 0.02 0.03 0.05 0.06 0.05 0.03 0.02 0.02 0.01 0.02 0.02 0.03 0.04 0.06 0.06 0.05 0.05 0.05 0.05 0.05 0.04 0.02 0.01 0.01 0.01 0.01 0.01 0.01 0.01 0.01
0.02 0.01 0.01 0.00 0.00 0.00 0.00 0.00 0.00 0.00 0.00 0.00 0.01 0.02 0.04 0.05 0.07 0.08 0.05 0.04 0.03 0.02 0.02 0.02 0.04 0.06 0.06 0.07 0.08 0.07 0.05 0.04 0.04 0.04 0.02 0.01 0.01 0.01 0.01 0.01 0.01 0.01 0.01
MSLP
1013.23 1013.25 1013.15 1012.96 1012.72 1012.50 1012.32 1012.23 1012.23 1012.32 1012.47 1012.67 1012.89 1013.10 1013.30 1013.47 1013.61 1013.71 1013.77 1013.80 1013.79 1013.77 1013.74 1013.73 1013.76 1013.87 1014.06 1014.33 1014.67 1015.06 1015.47 1015.88 1016.27 1016.62 1016.95 1017.25 1017.55 1017.85 1018.15 1018.46 1018.77 1019.07 1019.36
1012.57 1012.69 1012.68 1012.58 1012.42 1012.25 1012.10 1012.01 1012.00 1012.06 1012.19 1012.37 1012.57 1012.76 1012.95 1013.10 1013.21 1013.28 1013.31 1013.30 1013.27 1013.22 1013.19 1013.18 1013.23 1013.36 1013.56 1013.84 1014.17 1014.55 1014.95 1015.34 1015.72 1016.06 1016.39 1016.70 1017.01 1017.32 1017.64 1017.96 1018.28 1018.60 1018.91
1011.85 1012.08 1012.19 1012.21 1012.15 1012.06 1011.97 1011.91 1011.91 1011.96 1012.07 1012.21 1012.38 1012.54 1012.68 1012.80 1012.87 1012.90 1012.88 1012.84 1012.77 1012.71 1012.67 1012.68 1012.74 1012.88 1013.09 1013.37 1013.69 1014.05 1014.42 1014.79 1015.14 1015.46 1015.77 1016.08 1016.38 1016.69 1017.01 1017.34 1017.68 1018.02 1018.36
1011.17 1011.50 1011.74 1011.88 1011.94 1011.95 1011.94 1011.92 1011.93 1011.98 1012.07 1012.18 1012.30 1012.42 1012.51 1012.58 1012.60 1012.57 1012.51 1012.43 1012.34 1012.26 1012.21 1012.22 1012.29 1012.43 1012.65 1012.91 1013.22 1013.55 1013.89 1014.22 1014.53 1014.82 1015.11 1015.39 1015.68 1015.98 1016.29 1016.63 1016.98 1017.34 1017.71
1010.61 1011.01 1011.35 1011.60 1011.77 1011.88 1011.95 1011.99 1012.03 1012.08 1012.15 1012.22 1012.30 1012.38 1012.42 1012.44 1012.41 1012.34 1012.23 1012.11 1011.99 1011.89 1011.83 1011.83 1011.90 1012.03 1012.23 1012.47 1012.75 1013.05 1013.34 1013.63 1013.90 1014.16 1014.41 1014.67 1014.93 1015.22 1015.52 1015.86 1016.21 1016.59 1016.98
1010.19 1010.63 1011.02 1011.35 1011.62 1011.81 1011.95 1012.05 1012.12 1012.18 1012.24 1012.30 1012.35 1012.38 1012.39 1012.37 1012.30 1012.19 1012.06 1011.91 1011.76 1011.63 1011.55 1011.53 1011.57 1011.67 1011.84 1012.04 1012.28 1012.53 1012.78 1013.03 1013.26 1013.49 1013.71 1013.95 1014.19 1014.45 1014.75 1015.07 1015.42 1015.80 1016.21
1009.91 1010.34 1010.75 1011.12 1011.43 1011.69 1011.89 1012.03 1012.14 1012.22 1012.29 1012.34 1012.38 1012.40 1012.40 1012.36 1012.27 1012.15 1012.00 1011.83 1011.65 1011.50 1011.38 1011.32 1011.31 1011.37 1011.47 1011.62 1011.80 1012.00 1012.21 1012.42 1012.63 1012.83 1013.04 1013.25 1013.48 1013.72 1013.99 1014.29 1014.63 1015.00 1015.41
1009.76 1010.13 1010.50 1010.87 1011.20 1011.48 1011.72 1011.91 1012.05 1012.16 1012.25 1012.32 1012.38 1012.41 1012.42 1012.39 1012.31 1012.20 1012.05 1011.87 1011.68 1011.49 1011.33 1011.21 1011.13 1011.11 1011.14 1011.22 1011.33 1011.48 1011.64 1011.82 1012.01 1012.20 1012.40 1012.61 1012.82 1013.05 1013.30 1013.57 1013.88 1014.23 1014.62
1009.70 1009.97 1010.28 1010.59 1010.91 1011.19 1011.44 1011.66 1011.84 1011.99 1012.11 1012.22 1012.31 1012.38 1012.43 1012.43 1012.40 1012.31 1012.17 1012.00 1011.80 1011.58 1011.37 1011.19 1011.03 1010.92 1010.86 1010.85 1010.89 1010.98 1011.10 1011.25 1011.43 1011.63 1011.83 1012.03 1012.24 1012.45 1012.67 1012.91 1013.18 1013.49 1013.84
1009.70 1009.86 1010.07 1010.31 1010.58 1010.84 1011.09 1011.32 1011.53 1011.71 1011.88 1012.04 1012.18 1012.30 1012.40 1012.46 1012.47 1012.42 1012.32 1012.17 1011.96 1011.73 1011.47 1011.22 1010.99 1010.79 1010.64 1010.54 1010.51 1010.53 1010.62 1010.75 1010.92 1011.12 1011.33 1011.53 1011.74 1011.93 1012.12 1012.32 1012.54 1012.80 1013.10
1009.72 1009.77 1009.89 1010.05 1010.26 1010.48 1010.72 1010.95 1011.17 1011.39 1011.59 1011.79 1011.98 1012.15 1012.30 1012.42 1012.49 1012.49 1012.43 1012.30 1012.11 1011.87 1011.58 1011.28 1010.99 1010.71 1010.48 1010.31 1010.21 1010.19 1010.23 1010.34 1010.51 1010.70 1010.91 1011.12 1011.31 1011.48 1011.64 1011.79 1011.95 1012.15 1012.39
1009.76 1009.72 1009.75 1009.84 1009.99 1010.17 1010.37 1010.59 1010.82 1011.04 1011.27 1011.50 1011.72 1011.93 1012.13 1012.29 1012.40 1012.45 1012.44 1012.34 1012.18 1011.94 1011.66 1011.34 1011.01 1010.69 1010.41 1010.19 1010.04 1009.97 1009.99 1010.08 1010.23 1010.41 1010.61 1010.80 1010.97 1011.11 1011.22 1011.31 1011.42 1011.55 1011.72
1009.78 1009.68 1009.65 1009.69 1009.78 1009.92 1010.10 1010.29 1010.50 1010.72 1010.94 1011.17 1011.41 1011.63 1011.85 1012.03 1012.18 1012.27 1012.29 1012.24 1012.12 1011.92 1011.66 1011.36 1011.04 1010.72 1010.43 1010.19 1010.02 1009.93 1009.92 1009.99 1010.12 1010.28 1010.45 1010.61 1010.74 1010.83 1010.89 1010.92 1010.96 1011.01 1011.12
1009.76 1009.64 1009.59 1009.59 1009.65 1009.75 1009.89 1010.05 1010.23 1010.42 1010.62 1010.83 1011.05 1011.26 1011.47 1011.66 1011.81 1011.93 1011.99 1011.98 1011.91 1011.77 1011.57 1011.33 1011.06 1010.78 1010.53 1010.31 1010.15 1010.06 1010.05 1010.10 1010.20 1010.33 1010.46 1010.57 1010.65 1010.68 1010.67 1010.64 1010.60 1010.59 1010.64
1009.67 1009.56 1009.51 1009.50 1009.54 1009.62 1009.73 1009.86 1010.00 1010.15 1010.31 1010.48 1010.65 1010.83 1011.01 1011.17 1011.32 1011.45 1011.53 1011.57 1011.55 1011.49 1011.38 1011.23 1011.06 1010.87 1010.69 1010.54 1010.43 1010.37 1010.36 1010.40 1010.48 1010.57 1010.65 1010.70 1010.71 1010.68 1010.60 1010.51 1010.41 1010.33 1010.31
1009.46 1009.39 1009.36 1009.37 1009.41 1009.48 1009.56 1009.66 1009.76 1009.87 1009.99 1010.11 1010.23 1010.36 1010.49 1010.62 1010.75 1010.87 1010.96 1011.04 1011.09 1011.11 1011.10 1011.06 1011.01 1010.95 1010.89 1010.84 1010.81 1010.80 1010.82 1010.87 1010.93 1010.98 1011.01 1011.01 1010.96 1010.86 1010.73 1010.57 1010.41 1010.29 1010.22
1009.09 1009.08 1009.09 1009.13 1009.19 1009.26 1009.33 1009.41 1009.49 1009.56 1009.64 1009.71 1009.79 1009.88 1009.96 1010.06 1010.15 1010.25 1010.35 1010.45 1010.54 1010.64 1010.73 1010.81 1010.89 1010.97 1011.05 1011.12 1011.20 1011.28 1011.36 1011.43 1011.49 1011.53 1011.53 1011.48 1011.39 1011.25 1011.07 1010.87 1010.67 1010.51 1010.40
1008.56 1008.61 1008.67 1008.75 1008.83 1008.91 1008.99 1009.06 1009.13 1009.18 1009.24 1009.29 1009.34 1009.40 1009.45 1009.51 1009.57 1009.65 1009.73 1009.84 1009.96 1010.11 1010.28 1010.47 1010.67 1010.89 1011.10 1011.32 1011.52 1011.70 1011.86 1011.99 1012.08 1012.13 1012.13 1012.07 1011.96 1011.80 1011.60 1011.39 1011.18 1011.00 1010.87
1007.89 1007.98 1008.09 1008.20 1008.32 1008.42 1008.51 1008.59 1008.66 1008.72 1008.78 1008.83 1008.88 1008.93 1008.97 1009.01 1009.05 1009.09 1009.15 1009.24 1009.37 1009.53 1009.75 1010.01 1010.31 1010.64 1010.99 1011.33 1011.66 1011.96 1012.22 1012.43 1012.59 1012.68 1012.72 1012.69 1012.60 1012.46 1012.29 1012.09 1011.90 1011.73 1011.61
1007.10 1007.23 1007.37 1007.52 1007.66 1007.78 1007.89 1007.98 1008.07 1008.15 1008.24 1008.33 1008.41 1008.47 1008.53 1008.56 1008.58 1008.60 1008.62 1008.67 1008.77 1008.92 1009.14 1009.43 1009.79 1010.20 1010.65 1011.11 1011.56 1011.98 1012.35 1012.67 1012.93 1013.11 1013.22 1013.26 1013.24 1013.17 1013.05 1012.92 1012.77 1012.64 1012.54
1006.26 1006.41 1006.57 1006.74 1006.89 1007.02 1007.14 1007.25 1007.37 1007.49 1007.62 1007.76 1007.89 1008.01 1008.09 1008.14 1008.16 1008.14 1008.12 1008.12 1008.16 1008.26 1008.45 1008.73 1009.11 1009.56 1010.07 1010.62 1011.18 1011.72 1012.21 1012.65 1013.03 1013.32 1013.55 1013.70 1013.79 1013.82 1013.81 1013.76 1013.70 1013.63 1013.58
1005.42 1005.58 1005.75 1005.91 1006.06 1006.19 1006.32 1006.44 1006.59 1006.75 1006.94 1007.14 1007.33 1007.51 1007.64 1007.72 1007.73 1007.70 1007.63 1007.57 1007.53 1007.57 1007.69 1007.93 1008.28 1008.74 1009.29 1009.90 1010.54 1011.18 1011.80 1012.37 1012.87 1013.30 1013.67 1013.96 1014.18 1014.35 1014.46 1014.53 1014.57 1014.60 1014.62
1004.63 1004.78 1004.95 1005.09 1005.22 1005.34 1005.46 1005.59 1005.75 1005.95 1006.19 1006.45 1006.72 1006.95 1007.14 1007.25 1007.28 1007.23 1007.12 1006.99 1006.88 1006.84 1006.89 1007.06 1007.37 1007.81 1008.37 1009.02 1009.72 1010.45 1011.16 1011.85 1012.48 1013.05 1013.56 1014.00 1014.37 1014.68 1014.94 1015.14 1015.30 1015.44 1015.55
1003.91 1004.05 1004.19 1004.31 1004.42 1004.51 1004.60 1004.73 1004.90 1005.13 1005.41 1005.73 1006.05 1006.34 1006.57 1006.72 1006.76 1006.70 1006.56 1006.39 1006.22 1006.10 1006.08 1006.19 1006.45 1006.87 1007.42 1008.08 1008.82 1009.61 1010.40 1011.19 1011.93 1012.62 1013.25 1013.82 1014.34 1014.79 1015.19 1015.53 1015.82 1016.06 1016.27
1003.25 1003.38 1003.50 1003.59 1003.66 1003.72 1003.79 1003.91 1004.08 1004.32 1004.63 1004.98 1005.34 1005.68 1005.95 1006.13 1006.18 1006.12 1005.97 1005.77 1005.56 1005.40 1005.33 1005.39 1005.61 1006.00 1006.54 1007.21 1007.97 1008.79 1009.64 1010.48 1011.30 1012.08 1012.81 1013.48 1014.11 1014.68 1015.20 1015.66 1016.07 1016.43 1016.73
1002.64 1002.75 1002.84 1002.91 1002.96 1003.00 1003.06 1003.16 1003.33 1003.57 1003.89 1004.26 1004.65 1005.01 1005.30 1005.49 1005.56 1005.51 1005.37 1005.16 1004.94 1004.76 1004.68 1004.72 1004.93 1005.31 1005.84 1006.51 1007.27 1008.11 1008.97 1009.84 1010.70 1011.52 1012.30 1013.05 1013.75 1014.40 1015.01 1015.57 1016.08 1016.54 1016.94
Thickness
5739 5738 5737 5738 5737 5738 5738 5738 5737 5737 5737 5736 5735 5734 5734 5734 5734 5734 5735 5735 5736 5737 5738 5738 5738 5738 5738 5737 5736 5735 5733 5732 5731 5730 5729 5727 5726 5724 5724 5722 5721 5721 5720
5736 5735 5734 5735 5735 5735 5735 5735 5734 5734 5735 5734 5733 5733 5733 5733 5734 5734 5734 5734 5735 5736 5737 5737 5738 5738 5737 5736 5735 5733 5732 5731 5730 5730 5729 5728 5726 5725 5724 5723 5722 5721 5720
5732 5731 5731 5731 5732 5731 5731 5731 5731 5731 5731 5731 5731 5731 5731 5732 5732 5733 5733 5733 5734 5735 5736 5737 5737 5737 5737 5735 5734 5733 5731 5730 5730 5729 5728 5728 5727 5726 5725 5724 5723 5722 5721
5727 5727 5727 5728 5729 5727 5727 5726 5726 5726 5726 5726 5726 5727 5728 5729 5730 5731 5732 5732 5733 5734 5735 5736 5736 5736 5735 5734 5733 5732 5730 5730 5729 5728 5728 5727 5727 5727 5726 5725 5724 5723 5722
5723 5722 5723 5724 5724 5723 5722 5722 5721 5721 5721 5721 5722 5724 5725 5726 5728 5729 5731 5731 5732 5733 5733 5734 5734 5734 5734 5733 5732 5732 5731 5729 5728 5727 5727 5727 5727 5727 5726 5726 5725 5724 5723
5716 5717 5718 5719 5718 5717 5716 5716 5716 5716 5716 5716 5718 5720 5721 5723 5725 5726 5728 5729 5730 5731 5731 5732 5732 5732 5732 5732 5731 5731 5730 5729 5727 5727 5726 5726 5726 5726 5726 5726 5725 5725 5724
5711 5711 5713 5713 5713 5712 5712 5711 5711 5710 5710 5711 5710 5711 5715 5719 5721 5723 5725 5725 5727 5728 5729 5730 5730 5730 5730 5730 5730 5730 5729 5728 5727 5726 5725 5725 5725 5725 5725 5725 5725 5725 5725
5707 5708 5708 5707 5708 5708 5707 5706 5706 5704 5704 5705 5704 5702 5704 5709 5715 5719 5720 5722 5724 5725 5726 5727 5727 5728 5728 5728 5728 5728 5728 5727 5726 5725 5724 5724 5725 5724 5724 5724 5724 5724 5724
5702 5702 5702 5703 5704 5703 5702 5702 5701 5699 5698 5699 5699 5698 5697 5698 5704 5711 5714 5716 5718 5720 5722 5723 5725 5726 5726 5726 5726 5726 5726 5725 5724 5724 5723 5723 5723 5723 5723 5723 5723 5723 5723
5695 5696 5697 5698 5698 5698 5698 5697 5696 5695 5695 5693 5694 5695 5697 5698 5697 5699 5706 5710 5712 5714 5717 5719 5721 5722 5723 5723 5723 5723 5723 5723 5722 5722 5721 5721 5721 5721 5721 5721 5721 5721 5722
5688 5689 5690 5690 5690 5690 5691 5691 5690 5690 5691 5690 5689 5690 5690 5692 5693 5693 5695 5701 5705 5709 5712 5714 5717 5718 5719 5720 5720 5721 5720 5720 5719 5719 5719 5718 5718 5718 5719 5719 5719 5719 5720
5677 5678 5680 5681 5681 5682 5682 5683 5684 5684 5685 5685 5685 5686 5686 5687 5687 5688 5689 5692 5696 5702 5706 5710 5712 5714 5715 5716 5716 5717 5717 5716 5715 5715 5715 5714 5714 5715 5715 5715 5716 5717 5718
5663 5665 5667 5669 5670 5672 5673 5674 5675 5677 5678 5678 5679 5681 5682 5684 5685 5685 5685 5687 5689 5695 5700 5704 5708 5710 5711 5711 5712 5712 5712 5711 5710 5710 5710 5709 5709 5710 5710 5711 5712 5713 5714
5649 5651 5652 5654 5657 5659 5662 5664 5665 5667 5669 5671 5673 5675 5676 5678 5679 5680 5681 5681 5682 5687 5691 5696 5702 5704 5705 5705 5706 5706 5705 5705 5704 5704 5704 5704 5704 5705 5705 5706 5707 5709 5711
5633 5635 5636 5639 5642 5644 5647 5650 5653 5656 5658 5661 5664 5666 5669 5671 5673 5675 5676 5677 5677 5679 5683 5689 5693 5697 5698 5699 5699 5699 5699 5698 5697 5697 5697 5698 5698 5699 5700 5701 5702 5703 5705
5616 5617 5619 5621 5625 5628 5632 5635 5638 5642 5646 5649 5653 5655 5659 5662 5665 5667 5669 5671 5674 5675 5677 5683 5686 5689 5691 5692 5692 5692 5691 5691 5690 5690 5690 5690 5691 5692 5693 5694 5695 5697 5699
5598 5599 5601 5604 5607 5610 5614 5618 5622 5626 5630 5635 5639 5643 5647 5651 5655 5658 5661 5664 5667 5670 5672 5677 5680 5683 5684 5684 5684 5684 5684 5683 5682 5681 5682 5683 5684 5685 5686 5687 5688 5690 5692
5581 5582 5583 5585 5588 5592 5596 5600 5604 5609 5614 5619 5625 5630 5635 5640 5644 5648 5651 5656 5660 5664 5666 5670 5673 5675 5676 5677 5677 5677 5676 5675 5674 5673 5674 5675 5675 5677 5678 5679 5681 5682 5685
5567 5566 5567 5568 5571 5574 5578 5582 5586 5592 5597 5603 5609 5615 5621 5627 5632 5636 5640 5646 5651 5656 5659 5663 5666 5668 5670 5670 5669 5669 5668 5666 5666 5665 5665 5665 5666 5668 5669 5671 5672 5674 5676
5556 5555 5555 5555 5556 5558 5561 5565 5569 5574 5580 5586 5593 5599 5606 5613 5620 5625 5630 5636 5641 5646 5651 5655 5659 5662 5663 5664 5664 5662 5660 5658 5657 5657 5656 5656 5656 5658 5659 5661 5663 5665 5667
5547 5546 5546 5545 5545 5545 5548 5550 5553 5558 5563 5569 5576 5583 5591 5599 5607 5614 5621 5627 5632 5637 5643 5648 5653 5656 5658 5659 5659 5657 5654 5651 5649 5648 5648 5647 5647 5648 5648 5650 5652 5655 5657
5536 5536 5537 5537 5537 5538 5539 5540 5542 5544 5548 5553 5560 5567 5575 5584 5594 5602 5610 5618 5624 5630 5636 5642 5648 5652 5655 5656 5655 5652 5649 5647 5643 5640 5641 5638 5638 5638 5638 5639 5641 5644 5646
5525 5526 5528 5529 5530 5531 5532 5532 5533 5534 5536 5540 5545 5552 5562 5572 5579 5589 5599 5608 5616 5623 5630 5637 5643 5649 5652 5653 5651 5647 5646 5645 5642 5637 5635 5630 5629 5629 5629 5629 5631 5634 5636
5515 5517 5519 5522 5524 5526 5526 5526 5526 5527 5529 5531 5535 5541 5548 5557 5566 5575 5586 5596 5606 5615 5623 5631 5639 5644 5648 5649 5649 5647 5643 5637 5633 5630 5631 5625 5621 5620 5620 5620 5621 5623 5625
5505 5507 5511 5514 5516 5520 5521 5522 5521 5522 5523 5525 5528 5533 5538 5547 5556 5564 5574 5586 5597 5606 5614 5623 5631 5637 5641 5643 5643 5640 5636 5634 5628 5624 5623 5621 5615 5613 5611 5611 5611 5613 5615
5496 5499 5503 5507 5510 5513 5516 5517 5517 5517 5518 5521 5523 5527 5533 5539 5546 5553 5564 5576 5587 5598 5607 5615 5622 5628 5633 5636 5638 5639 5638 5634 5628 5621 5619 5618 5613 5611 5605 5602 5603 5604 5605